Location: Burtsch�tz
(51.0528°N, 12.1764°E)
Time: 14:53:55
(UTC+00:00)

AQUARIUS - Pass Details

Date: 29 October 2020
Orbit: 650 x 653 km, 98.0° (Epoch: 28 November)

Event Time Altitude Azimuth Distance (km) Brightness Sun altitude
Rises 16:31:59 0° 165° (SSE) 2,964 7.5 -7.1°
Reaches altitude 10° 16:34:12 10° 166° (SSE) 2,057 6.7 -7.5°
Maximum altitude 16:38:42 85° 255° (WSW) 663 4.3 -8.1°
Drops below altitude 10° 16:43:14 10° 345° (NNW) 2,073 6.8 -8.8°
Sets 16:45:27 0° 346° (NNW) 2,989 7.6 -9.2°
